Location: *
(51.4660°N, 0.3360°W)
Time: 02:59:57
(UTC+00:00)

Meteor 1-12 Rocket - Pass Details

Date: 19 September 2019
Orbit: 855 x 926 km, 81.2° (Epoch: 19 October)

Event Time Altitude Azimuth Distance (km) Brightness Sun altitude
Rises 19:00:10 0° 187° (S) 3,460 7.3 -9.0°
Reaches altitude 10° 19:02:36 10° 187° (S) 2,516 6.6 -9.3°
Maximum altitude 19:08:19 83° 101° (E) 877 4.2 -10.2°
Drops below altitude 10° 19:14:00 10° 14° (NNE) 2,503 6.7 -11.0°
Sets 19:16:25 0° 14° (NNE) 3,441 7.4 -11.4°
